GFSMA_con_sbcape_276.txt.gz
CAPE
519 282 181 44 80 78 80 83 203 414 868 792 504 738 1169 982 764 694 907 1764 1426 1280 1221 1372 1741 2154 1387 1820 2463 2165 1906 2245 2177 1811 1714 1565 1525 1708 1985 1984 1642 1678 1468
321 383 346 375 217 261 213 322 253 466 1246 527 492 700 882 874 1260 952 460 897 1880 1698 1598 1357 1583 2287 1806 1805 2104 2666 2501 2776 2479 2192 2314 2302 2321 2282 1776 1752 1510 1546 1786
742 1516 1711 1186 599 438 539 677 581 473 520 1301 732 670 981 897 1112 571 1216 1042 724 1738 1943 1623 1676 1929 2371 1783 2431 2487 2336 2311 2239 2652 2658 2604 2596 2675 2228 2057 2105 2104 2153
1459 1434 1553 2271 1033 518 636 812 1086 716 419 519 474 734 1477 559 169 579 687 615 668 627 1705 1972 2046 2140 1440 1781 2489 2671 2230 2269 2610 2622 2641 2694 2794 2785 2698 2267 2285 2377 2036
542 908 2046 1877 1476 747 1990 1296 772 1072 1313 1037 956 980 1008 1003 539 133 361 796 430 721 648 1660 1876 1949 1461 1725 1864 1944 1317 2365 2560 2169 2584 2848 2951 2942 2811 2785 2485 2683 2733
233 323 1944 969 1636 1294 1266 1959 1063 1849 1398 1399 1145 1091 1231 350 350 361 490 750 496 619 924 984 1435 1186 1746 1696 1521 1411 1069 2352 2369 2402 2741 2809 2792 2916 2786 2551 2549 2445 2502
456 568 532 1117 1364 1170 1029 1293 1509 1156 1981 2525 1662 2023 1676 1295 203 194 303 478 525 490 796 1256 1336 1029 1292 1725 1739 1740 1842 2093 1800 2323 2526 2538 2703 2801 2748 2489 2445 2634 2613
1466 1483 1497 1536 2017 2091 1470 1617 1796 1857 1324 860 695 1356 976 1194 755 186 382 392 400 777 806 1089 1114 1208 1067 1640 1511 1791 1793 2238 2143 2398 2428 2556 2777 2798 2429 2515 2571 2744 2720
1905 1715 1837 1920 2215 2513 1922 2115 1342 1591 1186 1038 667 774 780 771 166 971 427 393 601 1019 732 405 614 1008 1162 1593 1382 1579 1878 1769 1626 1843 2346 2279 2362 2513 2670 2572 2520 2540 2591
1746 1689 1885 2091 2463 2604 2509 2246 1819 1636 1469 1169 733 478 1049 832 187 377 688 1384 994 1142 1016 1267 736 1047 872 1090 1498 759 1118 726 827 1203 1518 2050 2295 2473 2604 2639 2700 2656 2572
1714 1121 1258 1623 2204 2490 2633 2133 1932 1704 1413 1849 1628 327 922 899 169 159 234 422 412 309 415 974 552 677 766 366 643 1016 544 601 881 1122 1177 1169 1504 2075 2537 2739 2672 2884 2837
1020 596 640 1582 2084 2250 2200 2326 2186 1808 2020 1509 702 1119 330 1040 720 231 673 848 160 139 515 517 668 485 268 249 293 481 463 538 764 1025 809 528 991 1374 1554 1604 2150 2937 3239
437 533 860 1322 1368 1565 1960 1857 1809 1847 1604 1003 599 1164 1500 1408 1057 339 190 365 174 297 599 707 1815 948 466 445 478 314 666 763 818 468 213 346 506 869 1096 1082 1098 1622 2868
612 1168 1567 1672 1819 2124 1614 1682 2068 1905 1567 1406 810 906 721 963 731 381 643 528 178 727 1203 959 1221 882 618 1273 1284 553 602 298 270 175 81 92 181 405 795 874 916 946 1458
979 1397 1447 1601 1800 1701 1587 1731 1595 1522 1311 885 916 764 787 1438 869 1072 832 674 657 239 711 396 235 553 1071 576 299 498 127 100 27 15 24 9 13 57 202 313 388 439 535
1574 1379 1298 1287 1316 1345 1096 1220 1187 1085 1025 917 743 782 741 838 588 508 378 632 687 752 293 275 245 305 274 256 106 137 105 0 24 26 5 2 0 0 0 6 92 145 157
1491 1209 1144 1150 1071 1005 928 859 899 903 950 907 837 709 693 657 791 486 142 77 30 60 117 22 30 133 281 213 126 247 251 249 204 22 8 0 0 0 0 0 0 0 11
1199 850 887 852 884 693 734 794 934 940 743 856 828 602 283 21 2 0 1 1 6 4 70 161 137 311 261 233 212 246 194 140 185 83 0 0 0 0 0 0 0 0 0
941 802 796 819 785 715 552 484 343 345 284 241 144 61 17 17 8 0 0 0 0 0 0 4 1 75 75 42 53 16 9 9 12 2 0 0 0 0 0 0 0 0 0
694 580 484 435 316 214 206 181 114 27 13 5 3 3 1 1 2 1 0 0 0 0 0 0 0 0 0 0 0 5 0 15 5 0 0 0 0 0 0 0 0 0 0
517 388 220 174 57 4 2 10 8 4 4 2 1 0 0 0 0 0 0 0 0 0 0 0 0 0 0 0 0 0 0 0 3 0 0 0 0 0 0 0 0 0 0
318 155 46 4 0 0 0 0 0 0 0 0 0 0 0 0 0 0 0 0 0 0 0 0 0 0 0 0 0 0 0 0 0 0 0 0 0 0 0 0 0 0 0
0 0 0 0 0 0 0 0 0 0 0 0 0 0 0 0 0 0 0 0 0 0 0 0 2 3 2 3 6 8 2 1 0 0 0 0 0 0 0 0 0 0 0
0 0 0 0 0 0 0 0 0 0 0 0 0 0 0 6 3 0 0 0 1 2 4 1 0 0 4 10 20 20 16 16 8 0 2 0 0 0 0 0 0 0 0
0 0 0 0 0 0 0 0 0 1 6 2 0 0 0 1 0 0 0 1 3 2 4 5 0 0 0 0 1 8 5 4 0 0 1 0 0 0 0 0 0 0 0
0 0 0 0 0 0 0 0 0 3 11 14 17 26 2 0 0 0 0 0 2 4 6 5 7 20 18 19 17 28 20 19 14 3 7 2 1 0 0 0 0 0 0

GFSMA_con_sbcape_279.txt.gz
CAPE
185 722 1179 377 306 493 516 949 702 363 965 961 311 874 950 610 959 555 321 1534 694 1230 1254 1415 2089 2735 2111 2634 2228 2312 2073 1723 1849 2101 1982 1674 1437 1694 1980 1730 1819 1677 1560
646 1148 1421 1323 1023 1005 941 1323 945 997 615 622 783 681 389 1260 1737 1498 631 473 609 623 1213 1392 1886 1960 2006 1763 2003 2589 2520 2461 2738 2561 2374 2339 2274 1994 1621 1891 1800 1439 1560
444 1729 2205 822 1176 1667 1265 1172 1403 937 595 442 533 883 618 808 707 319 1017 453 685 124 575 1642 1607 2068 1957 1673 1884 2097 2189 2505 2644 2785 2915 2612 2537 2461 2454 2271 2088 2223 2082
1795 1463 630 2015 1293 2297 1050 1326 763 890 907 854 926 713 1658 1115 549 204 873 889 417 198 610 874 1516 1724 1682 1441 1679 2111 2396 2499 2452 2561 2723 2996 2798 2730 2726 2655 2390 2381 2058
1255 1128 546 1131 2039 1937 2545 1633 2038 1891 2066 1088 851 963 1505 1113 663 243 315 227 371 269 284 884 1033 1278 1473 1189 1406 2331 2563 2598 1873 2473 2682 2739 2926 2811 2840 2883 2680 2590 2412
1546 422 555 2255 1608 2296 1714 1879 1548 2078 1699 2293 1484 1591 1645 1979 892 343 173 25 145 504 329 498 1495 892 1611 1666 1965 2243 2625 2365 2191 2068 2323 2503 2593 2808 2937 2870 2834 2744 2484
1280 1303 1109 1421 1171 1747 1728 2009 1845 1541 1435 959 466 861 781 978 545 717 275 92 802 640 591 419 231 898 1212 1722 1819 2256 2048 2072 1802 1924 2063 2352 2386 2643 2737 2754 2629 2577 2558
1653 1900 1800 1800 2601 1709 1718 1932 2055 2390 1826 2172 815 1018 760 1215 1464 808 721 652 436 502 365 989 583 878 1144 935 797 1618 1762 1869 1861 2247 2077 2097 2336 2539 2625 2620 2500 2386 2432
2011 2195 2298 2068 2041 2851 2513 2517 2301 2024 2103 2202 1510 461 634 584 470 491 727 536 158 868 288 779 619 478 541 1930 443 1009 1117 1342 1908 2038 2187 2067 2245 2258 2645 2649 2494 2336 2405
2255 2452 2094 2341 2433 2719 2887 2517 2516 2498 2173 1705 1427 1106 753 869 535 510 190 357 269 510 788 867 499 98 418 828 1120 701 1358 1277 1717 1982 2216 2474 2258 2448 2694 2739 2527 2389 2335
1841 1402 1662 1889 2146 2558 2572 2428 2374 2137 2337 1793 1939 1652 471 387 764 475 258 306 338 370 956 1300 372 204 690 769 1166 503 984 1080 924 1219 1405 1546 1607 1863 2521 2828 2825 2697 2622
1784 1132 919 1437 1888 2320 2441 2306 2247 2197 2345 1960 1864 1158 735 616 1071 857 621 276 270 177 74 306 234 132 867 660 667 678 892 873 878 1095 1229 1027 829 1173 1771 2192 2763 2874 3001
695 1249 1325 1665 1569 1710 1487 1793 2135 2008 1839 1933 1517 858 1069 1601 1658 1648 794 427 173 451 368 33 78 50 425 626 229 487 697 714 719 697 476 236 397 527 904 1459 1801 1849 2017
1060 1600 1718 1636 2056 1735 1869 1970 2087 2005 1586 1757 1340 1324 1002 1432 1324 1656 1002 522 306 171 149 170 379 285 535 465 697 608 355 422 810 345 176 36 141 270 436 1010 1362 1392 1559
1274 1845 1688 1792 1896 1779 1850 1847 1666 1655 1456 1671 1196 1096 1432 1456 1834 1708 1524 904 795 628 314 194 135 274 509 713 424 324 514 201 124 71 41 80 10 0 118 357 491 548 664
1746 1297 1285 1170 1143 1114 1256 1389 1017 1064 1000 977 955 1247 1022 1167 1240 1538 1193 973 906 744 424 293 336 361 516 620 63 40 369 50 88 58 7 0 0 0 0 0 4 42 194
1480 1403 1291 1231 1263 1293 939 1028 1143 1212 1173 1200 1033 739 681 433 248 428 371 163 416 199 403 316 189 266 73 127 168 486 426 301 247 31 36 38 14 6 7 0 0 0 0
1321 1170 1141 1083 910 812 1049 1346 991 944 664 651 490 544 194 44 7 2 0 0 0 0 3 173 308 222 202 143 74 225 333 300 183 76 82 89 11 0 0 0 0 0 0
1035 835 883 792 1227 947 1069 557 550 416 435 143 93 17 15 13 10 1 0 0 0 0 0 0 0 0 8 34 0 189 83 153 61 10 2 0 0 0 0 0 0 0 0
839 687 619 405 367 259 178 188 62 11 11 13 12 9 2 0 0 0 8 0 0 0 0 0 0 0 0 0 0 0 0 12 48 35 8 1 0 0 0 0 0 0 0
571 432 206 143 87 9 1 3 4 0 0 0 0 0 0 0 0 0 0 0 0 0 0 0 0 0 0 0 0 0 0 0 0 0 0 0 0 0 0 0 0 0 0
269 145 48 7 1 0 0 0 0 0 0 0 0 0 0 0 0 0 0 0 0 0 0 0 0 0 0 0 0 0 0 0 0 0 0 0 0 0 0 0 0 0 0
7 8 5 1 2 0 0 0 0 0 0 0 0 0 0 1 0 0 0 0 6 10 0 0 2 7 7 13 21 12 21 21 8 0 0 0 0 0 0 0 0 0 0
6 2 0 0 4 0 0 0 0 0 3 2 1 3 2 9 0 0 0 0 0 1 6 5 5 1 6 4 2 3 18 8 6 0 3 0 0 0 0 0 0 0 0
0 0 0 0 1 12 0 0 0 0 18 18 20 4 10 5 0 0 0 0 0 0 1 45 12 0 0 0 0 0 1 2 0 0 8 17 1 1 3 0 0 0 0
0 0 0 2 0 9 0 0 0 0 3 9 20 38 33 2 0 0 0 0 0 1 9 0 0 2 18 17 12 8 14 21 13 4 1 20 18 23 6 0 1 1 4

GFSMA_con_sbcape_285.txt.gz
CAPE
94 0 49 272 163 97 94 174 44 260 722 582 167 145 14 0 0 181 264 1158 1590 1514 962 966 1001 2058 2129 2026 1976 2005 2207 2242 1853 1675 1252 1484 1970 2011 2141 1696 1624 1490 1378
31 18 521 354 158 187 265 78 98 77 25 259 143 208 397 64 173 321 503 773 1098 1049 649 541 847 912 1776 1974 2122 2214 2435 2371 2139 2012 2125 2583 2283 2167 1858 1996 1698 1806 1624
304 872 583 369 252 300 320 411 238 282 499 246 264 249 396 605 623 497 346 220 866 1120 575 622 1117 505 768 1678 2618 2601 2677 2297 2060 2261 2369 2555 2614 2292 2231 2240 2153 2167 2191
0 462 295 171 142 199 310 449 435 388 321 310 269 260 320 589 285 178 264 144 281 438 857 1170 1071 1083 1037 765 1798 2049 2168 2411 2457 2202 2499 2660 2603 2496 2458 2427 2380 2419 2353
467 333 560 465 350 453 695 575 599 540 210 186 191 567 477 278 397 628 137 100 109 197 173 563 1391 1486 643 839 1117 1889 1258 1985 1988 2347 2084 2634 2378 2602 2544 2495 2578 2576 2593
1142 1192 771 484 340 647 807 642 436 440 415 250 625 732 224 223 199 219 318 349 191 185 75 111 253 656 829 804 754 988 1403 1660 1949 2170 2394 2281 2191 2562 2610 2555 2561 2656 2614
1323 1039 701 384 443 584 852 733 988 989 772 740 477 245 215 205 209 180 189 289 292 148 36 110 83 226 361 691 509 376 865 1555 1982 1958 2297 2036 2272 2367 2680 2563 2542 2632 2654
1253 597 389 495 680 642 729 631 866 1097 702 684 311 270 232 245 450 312 226 264 182 122 57 109 162 210 152 220 212 484 379 984 1243 1935 1992 1274 2051 2240 2425 2527 2436 2529 2652
1197 981 759 496 576 424 603 649 817 1149 775 602 303 286 220 199 133 166 179 215 236 186 140 188 106 107 34 4 5 3 104 269 811 1557 2154 2133 1727 2035 2277 2343 2367 2378 2441
1184 484 567 268 405 582 900 871 1063 976 789 391 717 553 389 251 90 26 166 46 112 113 82 181 305 166 27 25 4 1 25 101 515 1443 1725 1618 1427 2131 2200 2266 2259 2292 2331
375 494 435 389 296 835 1226 1375 977 683 736 565 519 498 469 289 253 103 75 207 99 117 83 224 161 163 56 11 0 0 5 57 351 577 1010 1412 1768 1878 1834 2104 2250 2505 2486
335 792 746 734 759 971 1183 1002 1025 948 697 664 757 596 427 328 395 326 237 209 196 31 77 94 8 84 111 29 10 3 122 146 272 560 674 843 1249 1555 1562 1649 1944 2206 2320
710 774 1006 1242 1247 1280 1212 793 800 729 709 716 725 686 598 512 419 294 191 133 170 125 78 111 53 81 276 100 112 469 106 122 306 161 271 779 1128 1219 1603 1637 1843 2322 2295
850 829 943 1052 1136 1171 1040 803 781 778 548 468 436 440 469 491 417 323 181 120 75 172 82 77 223 185 143 159 210 342 203 196 112 54 360 685 636 527 676 903 1148 1560 1738
1069 965 866 814 309 300 642 991 750 494 445 321 374 259 343 452 273 97 157 125 104 61 51 110 51 258 164 157 226 174 99 136 194 165 198 443 214 237 279 347 437 689 1101
888 865 692 808 553 267 696 515 369 258 63 123 78 0 0 0 0 0 0 0 0 45 7 18 35 151 42 213 328 138 137 90 49 94 95 122 130 148 120 132 198 218 264
927 708 599 437 280 468 265 119 1 12 37 0 0 0 0 0 0 0 0 0 0 0 0 0 0 0 0 0 1 4 86 6 29 0 0 15 18 3 8 9 13 7 0
720 688 530 488 161 206 51 0 0 3 2 2 0 0 0 0 0 0 0 0 0 0 0 0 0 0 0 0 0 0 47 334 77 57 9 2 6 0 0 0 0 0 0
779 509 300 235 45 39 0 3 8 7 6 0 0 0 0 0 0 0 0 0 0 0 0 0 0 0 0 0 0 0 0 0 5 33 24 7 2 2 14 7 1 0 0
179 14 0 0 0 0 0 0 0 0 0 0 0 0 0 0 0 0 0 0 0 0 0 0 0 0 0 0 0 0 0 0 0 0 0 0 0 0 1 12 10 4 0
141 0 5 0 0 0 0 0 0 0 0 0 0 0 0 0 0 0 0 0 0 0 0 0 0 0 0 0 0 0 0 0 0 0 0 0 0 0 0 0 0 0 0
140 19 0 0 0 0 0 0 0 0 0 0 0 0 0 0 0 0 0 0 0 0 0 0 0 0 0 0 0 0 0 0 0 0 0 0 0 0 0 0 0 0 0
0 0 0 0 0 0 0 0 0 0 0 0 0 0 0 0 0 0 0 0 0 0 0 0 0 0 0 0 0 0 0 0 0 0 0 0 0 0 0 0 0 0 0
0 0 0 0 0 0 0 0 0 0 0 0 0 0 0 7 0 0 0 0 0 0 0 0 0 0 0 0 0 0 0 0 0 0 0 0 0 0 0 0 0 0 0
0 0 0 0 0 0 0 0 0 0 0 0 0 0 0 0 0 0 0 0 0 0 0 0 0 0 0 0 5 0 0 0 0 0 0 0 0 0 0 0 0 0 0
0 0 0 0 0 0 0 0 0 0 0 0 0 0 0 0 0 0 0 0 0 0 0 0 0 0 0 0 24 4 13 5 0 1 0 12 0 0 0 0 0 0 0

GFSMA_con_sbcape_291.txt.gz
CAPE
155 36 58 6 86 84 46 11 45 43 84 244 376 246 363 229 31 0 0 31 1257 1729 1669 1243 976 1183 1433 1822 1576 1492 1531 1344 1388 1667 1378 959 1070 1318 1496 1069 875 924 934
147 1 0 0 0 16 19 14 21 39 6 101 236 216 170 57 2 0 6 42 194 1000 1145 1012 677 1003 1158 1668 1648 1640 1973 1931 2030 1865 1639 1689 1779 1639 1142 1117 1329 1586 1477
135 59 0 0 23 17 39 151 151 144 91 94 102 176 157 85 42 0 0 0 66 413 685 875 909 716 637 662 1233 1592 1951 2225 2358 2521 2330 2092 1883 1678 1976 2070 1988 1711 1785
114 31 16 31 30 65 82 84 78 146 109 105 102 148 138 148 261 161 70 66 226 236 377 637 532 518 541 369 975 1166 1356 1803 2071 2327 2424 2443 2033 2034 2161 2259 2192 2183 2253
135 48 49 101 53 50 130 313 429 284 225 104 122 134 141 209 259 375 227 198 162 192 136 282 451 596 693 469 340 529 1144 1752 2026 2006 2497 2343 2297 2171 1573 2109 2286 2175 2304
72 35 34 44 86 145 270 368 397 187 153 152 205 369 287 271 174 120 182 140 123 144 96 77 97 328 778 356 626 767 709 1391 1662 2160 2412 2520 2382 2304 2421 2131 2272 2238 2316
91 34 19 55 38 85 48 142 405 401 481 301 471 204 128 133 110 70 51 88 95 83 88 99 90 64 56 646 923 911 590 790 1307 1952 2144 1959 2331 2222 2341 2310 2229 2314 2211
218 96 45 83 116 119 145 379 551 461 280 403 321 170 177 86 71 62 54 53 56 116 253 239 179 94 79 58 182 774 575 582 815 1481 1908 1623 2144 2190 2074 2174 2213 2249 2209
526 330 240 64 56 112 103 283 473 497 485 352 217 235 169 44 0 0 35 24 13 40 36 67 85 94 89 120 205 298 813 734 778 777 1420 1751 1596 2012 2106 2164 2082 2196 2145
535 274 308 151 16 8 70 124 457 467 523 368 106 234 79 0 302 289 0 2 0 4 0 0 117 193 174 136 196 216 248 546 509 408 644 1424 1801 1925 2172 2230 2140 2148 2099
202 282 95 15 4 10 193 393 265 226 302 348 112 70 74 35 0 51 135 0 0 0 3 3 9 0 115 217 194 243 532 381 426 624 526 709 1235 1438 1668 1887 2172 2120 2208
184 304 281 271 357 387 389 369 315 217 152 147 96 69 33 15 8 64 173 0 0 0 0 0 0 0 15 248 346 338 475 654 416 302 442 396 706 1115 1516 1687 1705 1824 1836
33 308 513 470 474 342 264 190 103 63 49 36 25 0 6 118 132 32 0 0 0 0 0 0 4 0 23 40 173 331 530 480 364 120 177 254 366 806 1260 1536 1859 1918 1557
152 387 459 159 140 358 156 42 0 0 0 0 1 1 1 0 0 1 15 18 3 0 0 0 0 0 0 0 183 464 235 196 138 22 63 134 179 278 515 838 1037 1530 1635
404 415 1 0 17 169 0 0 0 0 0 0 0 0 0 0 0 0 0 0 7 2 0 0 0 0 0 0 166 0 86 157 26 14 91 129 147 118 224 480 510 501 584
210 35 0 5 5 1 0 0 0 0 0 0 0 0 0 0 0 0 0 0 0 1 9 2 2 1 0 0 0 0 57 74 64 86 57 139 92 44 28 47 125 183 286
107 189 48 4 0 0 0 0 0 0 0 0 0 0 0 0 0 0 0 0 0 0 3 7 0 0 0 0 0 0 0 0 0 19 6 1 1 1 1 3 1 9 33
143 40 0 0 0 0 0 0 0 0 0 0 0 0 0 0 0 0 0 0 0 0 0 0 0 0 0 0 0 0 0 0 0 0 0 0 0 10 3 3 1 0 0
77 13 0 0 0 0 0 0 0 0 0 0 0 0 0 0 0 0 0 0 0 0 0 0 0 0 0 0 0 0 0 0 0 0 0 0 0 0 3 1 1 0 0
75 4 0 0 0 0 0 0 0 0 0 0 0 0 0 0 0 0 0 0 0 0 0 0 0 0 0 0 0 0 0 0 0 0 0 0 0 0 0 1 3 0 0
0 0 0 0 0 0 0 0 0 0 0 0 0 0 0 0 0 0 0 0 0 0 0 0 0 0 0 0 0 0 0 0 0 0 0 0 0 0 0 0 0 0 0
0 0 0 0 0 0 0 0 0 0 0 0 0 0 0 0 0 0 0 0 0 0 0 0 0 0 0 0 0 0 0 0 0 0 0 0 0 0 0 0 0 0 0
0 0 0 0 0 0 0 0 0 0 0 0 0 0 0 0 0 0 0 0 0 0 0 0 0 0 0 0 0 0 0 0 0 0 0 0 0 0 0 0 0 0 0
0 0 0 0 0 0 0 0 0 0 0 0 0 0 0 0 0 0 0 0 0 0 0 0 0 0 0 0 0 0 0 0 0 0 0 0 0 0 0 0 0 0 0
0 0 0 0 0 0 0 0 0 0 0 0 0 0 0 0 0 0 0 0 0 0 0 0 0 3 4 5 3 0 0 0 0 0 0 0 0 0 0 0 0 0 0
0 0 0 0 0 0 0 0 0 0 0 0 0 0 0 0 0 0 0 0 0 0 0 0 0 0 0 0 0 0 0 0 0 0 0 0 0 0 0 0 0 0 0